STARLINK-3276 (50189 NORAD) Tracking and Keplerian Element Data
This shows tracking and keplerian element data for the satellite.
Feedback or suggestion? Click here.
Element | Value |
Catalog | 50189 |
Name | STARLINK-3276 |
Epoch Orbit | 130 |
Epoch Day | 140.58334491 |
Epoch Year | 2022 |
RAAN | 5.0586 |
Inclination | 53.217 |
Eccentricity | 0.0001446 |
Argument of Perigee | 65.8977 |
Mean Anonmoly | 200.603 |
Mean Motion | 15.0882542 |
Decay Rate | 0.0004584 |
L1 | 1 50189U 21125AK 22140.58334491 .00045840 00000+0 28808-2 0 9998 |
L2 | 2 50189 53.2170 5.0586 0001446 65.8977 200.6030 15.08825420 1304 |
Live tracking and technical data element details for STARLINK-3276 (NORAD 50189). STARLINK-3276 can be tracked NOW for your location showing map with azimuth and elevation plus other details from your city location.
Track the satellite on the map from your city or location and see movement details for azimuth, elevation, latitude, longitude, range, height, and movement on the map or in text.
IsCatalogInMostPopularTable: catalog: 50189, numindb: 22
Update: records affected: 1
GetName: 50189 STARLINK-3276
Hit Count: updated at: Mon, 23 May 2022 21:02:53 GMT